This is the latest recevied weather packets stored in our database for station/object VO2AGO. If no packets are shown the sender has not sent any weather packets the latest 10 day(s).
| Time | Temp. | Humidity | Pressure | Rain* | Wind** | Luminosity | Snow |
|---|---|---|---|---|---|---|---|
| 1777413052 | 11.67° C | 56% | 101.9 hPa | 0 mm | 0 m/s | 368 W/m² | - |
| 1777412601 | 12.78° C | 53% | 101.9 hPa | 0 mm | 0 m/s | 404 W/m² | - |
| 1777412152 | 12.22° C | 56% | 101.9 hPa | 0 mm | 0 m/s | 535 W/m² | - |
| 1777411702 | 12.22° C | 56% | 101.9 hPa | 0 mm | 0 m/s | 590 W/m² | - |
| 1777411252 | 12.22° C | 54% | 101.9 hPa | 0 mm | 0 m/s | 690 W/m² | - |
| 1777410801 | 12.78° C | 53% | 101.9 hPa | 0 mm | 0 m/s | 781 W/m² | - |
| 1777410352 | 12.78° C | 54% | 101.9 hPa | 0 mm | 0 m/s | 923 W/m² | - |
| 1777409902 | 13.33° C | 52% | 101.9 hPa | 0 mm | 0 m/s | 907 W/m² | - |
| 1777409452 | 13.89° C | 49% | 101.9 hPa | 0 mm | 0 m/s | 1253 W/m² | - |
| 1777409002 | 13.33° C | 51% | 101.9 hPa | 0 mm | 0 m/s | 1050 W/m² | - |
| 1777408552 | 13.33° C | 51% | 101.9 hPa | 0 mm | 0 m/s | 1268 W/m² | - |
| 1777408102 | 13.89° C | 49% | 101.9 hPa | 0 mm | 0 m/s | 1390 W/m² | - |
| 1777407652 | 12.78° C | 52% | 101.9 hPa | 0 mm | 0 m/s | 1269 W/m² | - |
| 1777407202 | 13.33° C | 51% | 102 hPa | 0 mm | 0 m/s | 945 W/m² | - |
| 1777406751 | 14.44° C | 47% | 102 hPa | 0 mm | 0 m/s | 1768 W/m² | - |
| 1777406302 | 14.44° C | 47% | 102 hPa | 0 mm | 0 m/s | 1902 W/m² | - |
| 1777405852 | 13.33° C | 49% | 102 hPa | 0 mm | 0 m/s | 1378 W/m² | - |
| 1777405402 | 13.89° C | 49% | 102 hPa | 0 mm | 0 m/s | 1274 W/m² | - |
| 1777404951 | 13.33° C | 49% | 102 hPa | 0 mm | 0 m/s | 1306 W/m² | - |
| 1777404501 | 13.33° C | 49% | 102 hPa | 0 mm | 0 m/s | 1659 W/m² | - |
| 1777404052 | 13.89° C | 47% | 102 hPa | 0 mm | 0 m/s | 1850 W/m² | - |
| 1777403603 | 14.44° C | - | - | - | 0 m/s | 1101 W/m² | - |
| 1777403153 | 11.67° C | 55% | 102 hPa | 0 mm | 0 m/s | 1974 W/m² | - |
| 1777402702 | 14.44° C | 46% | 102 hPa | 0 mm | 0 m/s | 1934 W/m² | - |
| 1777402252 | 14.44° C | 46% | 102.1 hPa | 0 mm | 0 m/s | 1981 W/m² | - |
* Rain latest hour (hover to see other rain measurements)
** Current wind speed in m/s (hover to see current wind gust speed)